SCP
1 1 0 1 1 1 0 0 0 0 0 0 0 0 0 0 0 0 0 -0 -0 0 0 0 0 0 0 0 0 0 0 0 0 0 0 0 0 0 0 0 0 0 0
1 1 1 0 1 0 0 0 0 0 0 0 0 0 0 0 0 0 0 0 0 0 0 0 0 0 0 0 0 0 0 0 0 0 0 0 0 0 0 0 0 0 0
1 1 1 0 1 0 0 0 0 1 1 0 0 0 0 0 0 0 0 0 0 0 0 0 0 0 0 0 0 0 0 0 0 0 0 0 0 0 0 0 0 0 0
1 1 1 0 0 1 0 0 0 0 1 0 0 0 0 0 0 0 0 0 0 0 0 0 0 0 0 0 0 0 0 0 0 0 0 0 0 0 0 0 0 0 0
1 1 1 1 1 1 0 1 1 1 1 0 0 0 0 0 1 1 1 0 0 0 0 0 0 0 0 0 0 0 0 0 0 0 0 0 0 0 0 0 0 0 0
1 1 1 1 1 1 1 1 2 1 1 0 0 0 0 0 1 1 1 1 0 0 0 0 0 0 0 0 0 0 0 0 0 0 0 0 0 0 0 0 0 0 0
2 1 2 1 1 0 1 1 1 1 0 0 0 0 0 0 1 1 1 1 1 0 0 0 0 0 0 0 0 0 0 0 0 0 0 0 0 0 0 0 0 0 0
4 1 2 0 1 0 1 1 1 1 0 0 0 0 1 2 2 2 2 1 1 0 0 0 0 0 0 0 0 0 0 0 0 0 0 0 0 0 0 0 0 0 0
2 2 1 1 1 0 1 1 1 0 0 0 0 0 1 1 0 1 1 1 1 1 0 0 0 0 0 0 0 0 0 0 0 0 0 0 0 0 0 0 0 0 0
1 2 2 1 1 1 0 2 1 0 0 0 0 0 1 2 1 1 1 1 1 1 0 0 0 0 0 0 0 0 0 0 0 0 0 0 0 0 0 0 0 0 0
0 2 3 1 2 1 1 1 1 0 1 0 0 0 0 1 2 1 0 1 1 1 1 0 0 0 0 0 0 0 0 0 0 0 0 0 0 0 0 0 0 0 0
1 2 2 2 3 1 1 1 1 1 0 1 0 0 0 1 2 1 1 1 1 1 1 0 0 0 0 0 0 0 0 0 0 0 0 0 0 0 0 0 0 0 0
0 0 1 3 2 2 1 1 2 1 0 0 1 0 0 1 1 1 1 1 1 1 0 0 0 0 0 0 0 0 0 0 0 0 0 0 0 0 0 0 0 0 0
0 0 -0 1 2 4 2 2 2 1 1 1 1 2 0 1 0 1 0 1 0 0 0 0 0 0 0 0 0 0 0 0 0 0 0 0 0 0 0 0 0 0 0
0 0 1 3 4 4 3 2 2 2 1 2 0 1 2 1 0 0 0 0 0 0 0 0 0 0 0 0 0 0 0 0 0 0 0 0 0 0 0 0 0 0 0
0 0 0 0 3 2 2 1 3 2 2 1 1 0 2 1 1 1 0 1 0 0 0 0 0 0 0 0 0 0 0 0 0 0 0 0 0 0 0 0 0 0 0
0 0 0 -0 3 3 3 3 2 2 2 1 2 1 1 1 2 1 1 1 2 1 0 0 0 0 0 0 0 0 0 0 0 0 0 0 -0 0 0 0 0 0 0
1 0 0 -0 1 3 3 3 2 3 3 2 1 2 1 1 1 2 3 2 2 3 0 0 0 0 0 0 0 0 0 0 0 0 0 0 0 -0 0 0 0 0 0
0 1 0 -0 0 2 3 3 3 3 2 2 2 1 1 1 1 2 3 4 0 0 0 0 0 0 0 0 0 0 0 0 0 0 0 0 -0 -0 0 0 0 0 0
0 0 0 0 0 0 0 2 2 2 2 1 2 1 1 1 1 1 2 2 0 0 0 0 0 0 0 0 0 0 0 0 0 0 0 -0 -0 -0 0 -0 0 0 0
0 0 0 0 0 0 0 0 1 1 1 1 1 2 1 2 1 1 1 1 0 0 0 0 0 0 0 0 0 0 0 0 0 0 0 -0 -0 0 0 0 0 0 0
0 0 0 0 0 0 0 0 0 0 0 1 1 1 1 1 1 1 1 0 0 0 0 0 0 0 0 0 0 0 0 0 0 0 0 -0 -0 0 0 0 -0 -0 -0
0 1 0 0 0 0 0 0 0 0 0 0 1 1 1 1 1 0 0 0 0 0 0 0 -0 0 0 0 0 0 0 0 0 0 0 -0 0 0 0 0 -0 -0 -0
0 1 0 0 0 0 0 0 0 -0 -0 0 1 1 2 1 0 0 0 0 0 0 0 0 0 0 0 0 0 0 0 0 0 0 -0 0 0 0 0 0 -0 -0 0
0 1 0 0 0 0 0 0 -0 -0 -0 0 2 2 2 1 0 0 0 0 0 0 0 0 0 0 0 0 0 0 0 0 0 0 0 0 0 0 0 0 -0 0 0
0 1 1 0 0 0 0 0 0 -0 0 2 3 1 1 0 0 0 0 0 0 0 0 0 0 0 0 0 0 0 0 0 0 0 0 0 0 0 0 0 0 0 0
Wind_Speed_500mb
66 59 54 57 48 58 57 51 40 33 28 22 30 29 24 18 10 13 11 14 14 10 6 8 11 17 22 30 37 40 41 32 27 25 24 23 19 17 17 17 17 17 15
78 65 66 64 55 44 52 50 34 40 29 38 34 28 28 25 16 20 15 18 16 13 8 5 8 15 20 27 36 38 38 29 27 27 27 25 21 20 19 19 20 20 18
76 71 74 70 63 57 55 40 52 41 47 37 35 33 35 34 24 27 18 18 9 9 13 5 8 13 18 24 33 36 35 28 26 26 26 25 23 23 21 22 23 24 23
79 80 79 79 77 61 59 63 54 56 48 39 38 33 21 26 28 26 18 23 12 21 13 8 9 12 16 22 29 33 33 27 24 25 25 24 25 23 23 23 25 24 23
81 91 86 80 81 70 67 63 62 56 57 47 44 40 34 30 34 34 27 25 19 22 15 8 8 8 15 18 24 30 33 28 23 24 25 25 26 26 27 27 28 29 26
94 96 89 82 83 85 69 79 65 60 54 51 44 44 38 32 35 27 29 20 26 20 17 10 9 8 17 18 22 27 31 28 23 23 24 25 27 27 27 27 27 29 30
104 93 90 92 87 95 77 79 76 69 62 55 52 40 41 36 36 31 41 28 28 27 24 17 8 10 17 16 19 22 27 26 22 22 23 25 25 27 27 28 28 29 29
115 103 108 104 91 96 83 82 81 77 75 61 66 52 47 41 36 38 36 32 32 32 26 20 12 15 16 17 18 18 24 25 21 19 22 25 27 28 28 29 28 29 30
113 120 113 103 89 98 100 90 88 89 81 71 63 64 47 29 51 52 32 33 33 28 27 26 22 19 15 21 21 14 22 19 15 15 19 20 23 26 28 27 26 27 28
101 125 110 113 95 101 97 101 93 93 83 85 70 63 48 37 58 47 45 34 33 35 33 31 33 24 26 29 26 19 20 16 9 12 14 15 20 23 26 27 28 28 29
111 111 108 107 97 105 94 102 100 101 82 77 79 76 64 43 51 59 56 49 39 37 36 38 33 31 32 24 23 14 15 12 5 8 9 14 19 21 22 25 29 30 33
85 86 112 107 104 103 98 95 103 99 92 73 75 81 81 55 43 48 47 66 58 46 39 40 36 32 27 31 27 15 15 9 2 4 5 12 16 19 22 23 27 30 33
85 108 93 109 109 98 101 94 99 90 85 85 76 68 84 58 52 39 37 61 61 48 45 43 32 31 29 30 30 20 13 9 1 1 3 9 13 19 20 23 27 30 33
94 136 116 88 92 108 103 99 103 83 81 94 80 68 58 63 52 48 38 47 49 57 45 33 32 30 35 33 27 21 13 6 3 5 1 6 11 17 19 23 28 31 33
87 100 132 139 120 112 109 93 99 88 80 83 86 71 65 60 56 54 49 49 63 49 53 40 33 39 45 39 33 22 12 4 5 7 2 5 10 15 19 24 28 31 32
80 88 107 123 117 111 102 85 79 85 83 79 88 88 76 65 59 57 57 47 42 35 48 44 40 48 51 38 30 22 11 7 9 9 6 0 8 14 19 23 26 27 26
69 69 103 145 120 106 94 94 88 84 87 83 91 92 84 75 67 57 55 48 47 36 36 40 44 41 45 38 33 23 13 8 11 10 10 2 4 13 18 22 25 25 22
47 61 100 89 138 110 103 99 97 88 90 87 85 84 91 89 75 59 44 52 47 36 42 52 52 39 36 36 33 26 19 17 11 11 11 5 4 12 18 20 22 22 20
55 61 64 89 61 90 99 98 98 87 87 92 83 81 79 80 88 75 48 42 60 46 47 46 44 36 39 40 38 31 29 21 20 14 14 9 1 11 19 16 20 20 21
42 40 29 44 65 10 51 79 86 84 78 89 84 81 77 76 70 78 72 41 55 54 50 44 39 40 46 44 41 49 36 27 18 23 17 11 3 11 16 22 22 21 19
36 33 36 37 47 59 55 11 58 67 66 74 85 80 80 76 67 67 81 67 55 58 55 51 47 50 52 51 58 55 41 26 21 23 14 9 6 11 10 27 26 24 23
30 35 33 47 77 76 77 53 56 60 56 74 81 78 79 79 66 67 62 75 72 69 62 55 58 61 58 55 56 49 44 39 38 22 14 12 4 6 13 23 25 29 27
21 15 37 39 54 63 75 81 82 80 76 81 84 79 78 71 75 69 60 63 65 67 65 60 61 59 58 55 56 51 43 35 33 21 25 25 17 11 12 14 21 24 30
30 23 29 42 45 71 64 73 90 99 75 88 87 74 67 64 68 72 67 67 62 54 64 65 54 40 40 52 46 32 34 34 33 31 45 35 27 15 13 7 15 21 29
33 30 36 60 72 56 97 79 110 116 108 91 79 68 72 74 64 70 69 66 61 65 74 68 53 40 48 44 45 48 46 49 41 39 47 29 34 22 10 6 11 17 23
20 22 32 57 66 69 70 132 129 121 84 82 75 74 70 60 54 57 57 64 66 76 78 68 57 58 54 44 49 41 52 52 36 36 37 29 36 25 21 12 4 11 16
Wind_Direction_500mb
218 214 220 226 237 228 222 223 222 217 216 191 223 195 194 203 246 254 251 264 280 275 297 341 355 355 2 8 7 12 16 19 26 30 35 35 22 12 3 6 3 1 356
220 213 220 208 224 227 223 217 213 211 210 209 221 208 202 203 200 250 247 255 275 272 276 320 340 349 356 7 7 12 16 19 28 32 37 36 29 28 19 16 11 6 357
222 209 217 208 211 220 211 216 206 201 211 208 221 206 208 196 190 242 241 256 273 287 272 284 318 343 349 3 7 11 14 18 25 28 31 30 32 35 26 22 18 16 4
225 211 215 211 204 212 203 214 200 205 211 204 201 212 203 180 188 215 243 238 250 275 260 256 311 334 340 357 4 9 13 18 23 25 26 26 28 27 16 16 16 14 3
227 210 214 213 206 202 208 203 203 204 209 199 204 213 203 190 202 192 230 217 260 261 257 256 293 321 343 349 359 7 11 16 19 26 25 23 25 23 17 16 19 17 13
228 217 217 209 208 202 206 205 203 200 208 200 196 203 192 194 203 194 219 212 255 256 257 256 268 305 337 339 357 3 6 15 15 27 27 25 28 28 24 25 31 31 25
227 225 212 207 212 203 205 207 203 205 203 206 188 194 183 186 204 195 203 225 226 252 255 249 265 286 314 335 345 359 358 10 17 32 35 34 33 31 30 29 35 31 28
226 225 213 211 210 206 204 207 200 203 200 198 195 187 174 185 183 189 214 215 227 240 234 247 269 267 284 306 335 346 354 5 15 34 42 42 37 34 31 32 35 33 26
221 221 219 211 210 208 201 206 202 201 199 197 196 186 171 180 194 199 200 205 215 218 204 231 248 248 263 292 306 323 344 352 7 39 51 46 40 36 32 30 31 33 29
241 211 218 213 209 210 206 205 204 202 203 199 196 191 193 193 169 183 199 204 211 203 210 228 229 237 251 264 283 313 327 340 7 45 43 57 57 41 34 32 34 31 26
255 201 214 216 209 215 206 206 206 206 199 200 200 196 192 209 188 179 182 193 195 204 215 217 229 231 235 240 267 281 309 329 354 52 51 48 49 48 35 33 31 27 20
261 233 222 217 205 214 205 209 212 210 199 193 201 198 196 206 195 186 194 189 196 199 214 220 231 240 233 237 242 251 303 310 316 60 39 42 45 43 35 31 27 20 16
247 219 231 220 207 211 209 211 213 211 202 193 195 200 200 202 201 200 184 189 193 191 196 218 238 226 228 232 239 263 279 282 252 279 60 28 36 41 33 28 23 15 10
249 222 238 220 221 210 210 209 212 211 202 197 194 199 193 200 204 203 207 188 172 181 198 211 204 219 221 233 233 243 256 247 186 237 107 10 24 30 28 23 20 17 13
250 226 225 219 223 211 209 208 209 210 207 205 199 194 195 195 204 199 205 209 200 174 200 210 197 194 213 228 230 233 231 255 199 234 207 347 15 17 17 18 16 17 19
234 232 227 223 214 212 210 207 203 212 212 206 203 197 193 191 198 202 205 205 196 209 186 208 215 203 213 214 220 231 212 226 207 220 203 238 12 359 9 11 14 17 22
245 236 221 235 212 209 204 206 200 208 210 206 203 200 196 194 192 202 213 208 210 216 187 180 193 200 210 206 205 219 216 193 197 220 200 193 5 350 3 5 12 14 20
250 241 232 247 208 202 200 202 204 204 202 209 204 206 203 202 199 194 207 212 211 213 208 179 188 198 210 202 199 195 188 189 205 194 188 196 352 348 356 4 8 9 18
250 213 233 245 239 196 201 201 203 199 205 207 208 205 209 209 210 206 197 206 211 206 203 203 192 199 210 198 184 172 187 213 205 205 199 170 334 8 9 14 360 0 15
253 265 220 239 241 175 194 201 202 203 205 210 211 211 207 211 208 208 209 205 208 205 206 202 196 198 203 193 182 169 186 207 214 201 193 178 73 8 46 24 5 7 19
252 241 245 253 234 234 250 248 196 206 209 211 212 213 213 210 212 213 210 210 207 211 204 204 198 196 198 191 185 183 197 192 189 193 177 153 49 349 41 13 4 16 24
263 247 240 230 215 214 229 209 220 214 216 222 216 212 212 207 206 214 213 216 222 220 211 210 199 204 207 195 185 184 186 182 183 174 191 176 153 309 349 341 1 22 25
290 243 262 227 218 213 208 207 216 216 210 221 216 207 205 205 207 212 218 224 223 228 235 236 214 212 208 197 187 180 185 193 185 164 191 201 180 270 273 300 359 26 32
278 234 256 231 217 207 188 197 211 214 223 217 214 209 204 204 204 204 209 208 209 208 210 218 228 222 206 187 186 190 184 164 194 191 190 190 190 232 260 288 355 22 37
287 263 251 224 211 218 200 202 197 218 217 210 205 200 202 202 205 205 205 212 207 205 207 215 219 201 178 179 176 171 168 185 175 179 189 199 186 209 248 265 343 14 33
274 236 233 212 212 198 195 198 208 212 215 193 194 197 208 211 210 202 210 217 219 211 208 202 193 183 179 174 180 185 180 184 178 178 198 192 183 174 192 196 339 357 23
Wind_Speed_850mb
66 59 54 57 48 58 57 51 40 33 28 22 30 29 24 18 10 13 11 14 14 10 6 8 11 17 22 30 37 40 41 32 27 25 24 23 19 17 17 17 17 17 15
78 65 66 64 55 44 52 50 34 40 29 38 34 28 28 25 16 20 15 18 16 13 8 5 8 15 20 27 36 38 38 29 27 27 27 25 21 20 19 19 20 20 18
76 71 74 70 63 57 55 40 52 41 47 37 35 33 35 34 24 27 18 18 9 9 13 5 8 13 18 24 33 36 35 28 26 26 26 25 23 23 21 22 23 24 23
79 80 79 79 77 61 59 63 54 56 48 39 38 33 21 26 28 26 18 23 12 21 13 8 9 12 16 22 29 33 33 27 24 25 25 24 25 23 23 23 25 24 23
81 91 86 80 81 70 67 63 62 56 57 47 44 40 34 30 34 34 27 25 19 22 15 8 8 8 15 18 24 30 33 28 23 24 25 25 26 26 27 27 28 29 26
94 96 89 82 83 85 69 79 65 60 54 51 44 44 38 32 35 27 29 20 26 20 17 10 9 8 17 18 22 27 31 28 23 23 24 25 27 27 27 27 27 29 30
104 93 90 92 87 95 77 79 76 69 62 55 52 40 41 36 36 31 41 28 28 27 24 17 8 10 17 16 19 22 27 26 22 22 23 25 25 27 27 28 28 29 29
115 103 108 104 91 96 83 82 81 77 75 61 66 52 47 41 36 38 36 32 32 32 26 20 12 15 16 17 18 18 24 25 21 19 22 25 27 28 28 29 28 29 30
113 120 113 103 89 98 100 90 88 89 81 71 63 64 47 29 51 52 32 33 33 28 27 26 22 19 15 21 21 14 22 19 15 15 19 20 23 26 28 27 26 27 28
101 125 110 113 95 101 97 101 93 93 83 85 70 63 48 37 58 47 45 34 33 35 33 31 33 24 26 29 26 19 20 16 9 12 14 15 20 23 26 27 28 28 29
111 111 108 107 97 105 94 102 100 101 82 77 79 76 64 43 51 59 56 49 39 37 36 38 33 31 32 24 23 14 15 12 5 8 9 14 19 21 22 25 29 30 33
85 86 112 107 104 103 98 95 103 99 92 73 75 81 81 55 43 48 47 66 58 46 39 40 36 32 27 31 27 15 15 9 2 4 5 12 16 19 22 23 27 30 33
85 108 93 109 109 98 101 94 99 90 85 85 76 68 84 58 52 39 37 61 61 48 45 43 32 31 29 30 30 20 13 9 1 1 3 9 13 19 20 23 27 30 33
94 136 116 88 92 108 103 99 103 83 81 94 80 68 58 63 52 48 38 47 49 57 45 33 32 30 35 33 27 21 13 6 3 5 1 6 11 17 19 23 28 31 33
87 100 132 139 120 112 109 93 99 88 80 83 86 71 65 60 56 54 49 49 63 49 53 40 33 39 45 39 33 22 12 4 5 7 2 5 10 15 19 24 28 31 32
80 88 107 123 117 111 102 85 79 85 83 79 88 88 76 65 59 57 57 47 42 35 48 44 40 48 51 38 30 22 11 7 9 9 6 0 8 14 19 23 26 27 26
69 69 103 145 120 106 94 94 88 84 87 83 91 92 84 75 67 57 55 48 47 36 36 40 44 41 45 38 33 23 13 8 11 10 10 2 4 13 18 22 25 25 22
47 61 100 89 138 110 103 99 97 88 90 87 85 84 91 89 75 59 44 52 47 36 42 52 52 39 36 36 33 26 19 17 11 11 11 5 4 12 18 20 22 22 20
55 61 64 89 61 90 99 98 98 87 87 92 83 81 79 80 88 75 48 42 60 46 47 46 44 36 39 40 38 31 29 21 20 14 14 9 1 11 19 16 20 20 21
42 40 29 44 65 10 51 79 86 84 78 89 84 81 77 76 70 78 72 41 55 54 50 44 39 40 46 44 41 49 36 27 18 23 17 11 3 11 16 22 22 21 19
36 33 36 37 47 59 55 11 58 67 66 74 85 80 80 76 67 67 81 67 55 58 55 51 47 50 52 51 58 55 41 26 21 23 14 9 6 11 10 27 26 24 23
30 35 33 47 77 76 77 53 56 60 56 74 81 78 79 79 66 67 62 75 72 69 62 55 58 61 58 55 56 49 44 39 38 22 14 12 4 6 13 23 25 29 27
21 15 37 39 54 63 75 81 82 80 76 81 84 79 78 71 75 69 60 63 65 67 65 60 61 59 58 55 56 51 43 35 33 21 25 25 17 11 12 14 21 24 30
30 23 29 42 45 71 64 73 90 99 75 88 87 74 67 64 68 72 67 67 62 54 64 65 54 40 40 52 46 32 34 34 33 31 45 35 27 15 13 7 15 21 29
33 30 36 60 72 56 97 79 110 116 108 91 79 68 72 74 64 70 69 66 61 65 74 68 53 40 48 44 45 48 46 49 41 39 47 29 34 22 10 6 11 17 23
20 22 32 57 66 69 70 132 129 121 84 82 75 74 70 60 54 57 57 64 66 76 78 68 57 58 54 44 49 41 52 52 36 36 37 29 36 25 21 12 4 11 16
Wind_Direction_850mb
218 214 220 226 237 228 222 223 222 217 216 191 223 195 194 203 246 254 251 264 280 275 297 341 355 355 2 8 7 12 16 19 26 30 35 35 22 12 3 6 3 1 356
220 213 220 208 224 227 223 217 213 211 210 209 221 208 202 203 200 250 247 255 275 272 276 320 340 349 356 7 7 12 16 19 28 32 37 36 29 28 19 16 11 6 357
222 209 217 208 211 220 211 216 206 201 211 208 221 206 208 196 190 242 241 256 273 287 272 284 318 343 349 3 7 11 14 18 25 28 31 30 32 35 26 22 18 16 4
225 211 215 211 204 212 203 214 200 205 211 204 201 212 203 180 188 215 243 238 250 275 260 256 311 334 340 357 4 9 13 18 23 25 26 26 28 27 16 16 16 14 3
227 210 214 213 206 202 208 203 203 204 209 199 204 213 203 190 202 192 230 217 260 261 257 256 293 321 343 349 359 7 11 16 19 26 25 23 25 23 17 16 19 17 13
228 217 217 209 208 202 206 205 203 200 208 200 196 203 192 194 203 194 219 212 255 256 257 256 268 305 337 339 357 3 6 15 15 27 27 25 28 28 24 25 31 31 25
227 225 212 207 212 203 205 207 203 205 203 206 188 194 183 186 204 195 203 225 226 252 255 249 265 286 314 335 345 359 358 10 17 32 35 34 33 31 30 29 35 31 28
226 225 213 211 210 206 204 207 200 203 200 198 195 187 174 185 183 189 214 215 227 240 234 247 269 267 284 306 335 346 354 5 15 34 42 42 37 34 31 32 35 33 26
221 221 219 211 210 208 201 206 202 201 199 197 196 186 171 180 194 199 200 205 215 218 204 231 248 248 263 292 306 323 344 352 7 39 51 46 40 36 32 30 31 33 29
241 211 218 213 209 210 206 205 204 202 203 199 196 191 193 193 169 183 199 204 211 203 210 228 229 237 251 264 283 313 327 340 7 45 43 57 57 41 34 32 34 31 26
255 201 214 216 209 215 206 206 206 206 199 200 200 196 192 209 188 179 182 193 195 204 215 217 229 231 235 240 267 281 309 329 354 52 51 48 49 48 35 33 31 27 20
261 233 222 217 205 214 205 209 212 210 199 193 201 198 196 206 195 186 194 189 196 199 214 220 231 240 233 237 242 251 303 310 316 60 39 42 45 43 35 31 27 20 16
247 219 231 220 207 211 209 211 213 211 202 193 195 200 200 202 201 200 184 189 193 191 196 218 238 226 228 232 239 263 279 282 252 279 60 28 36 41 33 28 23 15 10
249 222 238 220 221 210 210 209 212 211 202 197 194 199 193 200 204 203 207 188 172 181 198 211 204 219 221 233 233 243 256 247 186 237 107 10 24 30 28 23 20 17 13
250 226 225 219 223 211 209 208 209 210 207 205 199 194 195 195 204 199 205 209 200 174 200 210 197 194 213 228 230 233 231 255 199 234 207 347 15 17 17 18 16 17 19
234 232 227 223 214 212 210 207 203 212 212 206 203 197 193 191 198 202 205 205 196 209 186 208 215 203 213 214 220 231 212 226 207 220 203 238 12 359 9 11 14 17 22
245 236 221 235 212 209 204 206 200 208 210 206 203 200 196 194 192 202 213 208 210 216 187 180 193 200 210 206 205 219 216 193 197 220 200 193 5 350 3 5 12 14 20
250 241 232 247 208 202 200 202 204 204 202 209 204 206 203 202 199 194 207 212 211 213 208 179 188 198 210 202 199 195 188 189 205 194 188 196 352 348 356 4 8 9 18
250 213 233 245 239 196 201 201 203 199 205 207 208 205 209 209 210 206 197 206 211 206 203 203 192 199 210 198 184 172 187 213 205 205 199 170 334 8 9 14 360 0 15
253 265 220 239 241 175 194 201 202 203 205 210 211 211 207 211 208 208 209 205 208 205 206 202 196 198 203 193 182 169 186 207 214 201 193 178 73 8 46 24 5 7 19
252 241 245 253 234 234 250 248 196 206 209 211 212 213 213 210 212 213 210 210 207 211 204 204 198 196 198 191 185 183 197 192 189 193 177 153 49 349 41 13 4 16 24
263 247 240 230 215 214 229 209 220 214 216 222 216 212 212 207 206 214 213 216 222 220 211 210 199 204 207 195 185 184 186 182 183 174 191 176 153 309 349 341 1 22 25
290 243 262 227 218 213 208 207 216 216 210 221 216 207 205 205 207 212 218 224 223 228 235 236 214 212 208 197 187 180 185 193 185 164 191 201 180 270 273 300 359 26 32
278 234 256 231 217 207 188 197 211 214 223 217 214 209 204 204 204 204 209 208 209 208 210 218 228 222 206 187 186 190 184 164 194 191 190 190 190 232 260 288 355 22 37
287 263 251 224 211 218 200 202 197 218 217 210 205 200 202 202 205 205 205 212 207 205 207 215 219 201 178 179 176 171 168 185 175 179 189 199 186 209 248 265 343 14 33
274 236 233 212 212 198 195 198 208 212 215 193 194 197 208 211 210 202 210 217 219 211 208 202 193 183 179 174 180 185 180 184 178 178 198 192 183 174 192 196 339 357 23